| time (UTC) | temp F | wind direction | speed knots | gust knots | rain 1hr in | rain 24hr in | rain mn in | humidity % | barometer mb |
| 20260510160606 | 61 | 0 | 2.6 | 10.4 | 0.00 | 0.00 | 0.00 | 7 | 1026.0 |
| 20260510150112 | 57 | 0 | 3.5 | 8.7 | 0.00 | 0.00 | 0.00 | 10 | 1025.8 |
| 20260510140607 | 54 | 0 | 5.2 | 7.8 | 0.00 | 0.00 | 0.00 | 14 | 1025.5 |
| 20260510140111 | 54 | 0 | 2.6 | 7.8 | 0.00 | 0.00 | 0.00 | 14 | 1025.5 |
| 20260510130606 | 46 | 0 | 0.0 | 0.9 | 0.00 | 0.00 | 0.00 | 23 | 1025.0 |
| 20260510130111 | 46 | 0 | 0.0 | 0.9 | 0.00 | 0.00 | 0.00 | 22 | 1025.0 |
| 20260510110606 | 43 | 0 | 0.0 | 0.9 | 0.00 | 0.00 | 0.00 | 16 | 1023.4 |
| 20260510110112 | 44 | 0 | 0.0 | 0.9 | 0.00 | 0.00 | 0.00 | 15 | 1023.3 |
| 20260510100607 | 40 | 0 | 0.0 | 0.9 | 0.00 | 0.00 | 0.00 | 16 | 1023.1 |
| 20260510100112 | 40 | 0 | 0.0 | 0.9 | 0.00 | 0.00 | 0.00 | 16 | 1023.1 |
| 20260510090607 | 44 | 0 | 0.0 | 0.9 | 0.00 | 0.00 | 0.00 | 10 | 1022.8 |
| 20260510090111 | 44 | 0 | 0.0 | 0.9 | 0.00 | 0.00 | 0.00 | 9 | 1022.7 |
| 20260510080606 | 47 | 0 | 0.0 | 0.9 | 0.00 | 0.00 | 0.00 | 4 | 1022.6 |
| 20260510080111 | 46 | 0 | 0.0 | 0.9 | 0.00 | 0.00 | 0.00 | 5 | 1022.6 |
| 20260510070606 | 49 | 0 | 0.0 | 2.6 | 0.00 | 0.00 | 0.00 | 4 | 1022.6 |
| 20260510060606 | 54 | 0 | 1.7 | 5.2 | 0.00 | 0.00 | 0.00 | 2 | 1021.9 |
| 20260510050606 | 53 | 0 | 0.9 | 6.1 | 0.00 | 0.00 | 0.00 | 2 | 1021.4 |
| 20260510040607 | 54 | 0 | 0.0 | 0.0 | 0.00 | 0.00 | 0.00 | 3 | 1021.0 |
| 20260510040111 | 55 | 0 | 0.0 | 0.9 | 0.00 | 0.00 | 0.00 | 3 | 1021.0 |
| 20260510030113 | 57 | 0 | 0.9 | 5.2 | 0.00 | 0.00 | 0.00 | 3 | 1019.7 |
| 20260510020606 | 62 | 0 | 0.0 | 5.2 | 0.00 | 0.00 | 0.00 | 3 | 1018.7 |
| 20260510020112 | 63 | 0 | 0.9 | 7.0 | 0.00 | 0.00 | 0.00 | 3 | 1018.7 |
| 20260510010112 | 69 | 0 | 2.6 | 10.4 | 0.00 | 0.00 | 0.00 | 4 | 1018.1 |
| 20260510000606 | 67 | 0 | 3.5 | 12.2 | 0.00 | 0.00 | 0.00 | 7 | 1018.1 |
| 20260510000112 | 67 | 0 | 6.1 | 12.2 | 0.00 | 0.00 | 0.00 | 6 | 1018.3 |
| 20260509230112 | 69 | 0 | 4.3 | 13.9 | 0.00 | 0.00 | 0.00 | 5 | 1017.9 |
| 20260509220606 | 71 | 0 | 7.0 | 17.4 | 0.00 | 0.00 | 0.00 | 4 | 1018.2 |
| 20260509220112 | 71 | 0 | 6.1 | 17.4 | 0.00 | 0.00 | 0.00 | 4 | 1018.1 |
| 20260509210111 | 71 | 0 | 11.3 | 17.4 | 0.00 | 0.00 | 0.00 | 5 | 1018.6 |
| 20260509200606 | 72 | 0 | 5.2 | 12.2 | 0.00 | 0.00 | 0.00 | 6 | 1019.1 |
| 20260509190606 | 70 | 0 | 6.1 | 11.3 | 0.00 | 0.00 | 0.00 | 7 | 1019.5 |
| 20260509180606 | 70 | 0 | 5.2 | 11.3 | 0.00 | 0.00 | 0.00 | 6 | 1020.1 |
| 20260509180112 | 70 | 0 | 5.2 | 11.3 | 0.00 | 0.00 | 0.00 | 7 | 1020.1 |
| 20260509170606 | 68 | 0 | 1.7 | 10.4 | 0.00 | 0.00 | 0.00 | 8 | 1020.7 |